Location: Gisborne
(38.6530°S, 178.0040°E)
Time: 13:58:52
(UTC+12:00)

Daily predictions for brighter satellites

Satellite Brightness Start Highest point End
(mag) Time Altitude Azimuth Time Altitude Azimuth Time Altitude Azimuth
Cosmos 1842 Rocket 3.9 17:25:42 10° S 17:30:01 44° E 17:34:18 10° NNE
Cosmos 2026 Rocket 4.2 17:23:52 10° NNE 17:30:03 53° E 17:36:15 10° SSE
Cosmos 2221 2.8 17:27:01 10° S 17:31:12 45° E 17:35:19 10° NNE
Cosmos 1980 3.8 17:25:42 10° N 17:31:19 66° ENE 17:36:59 10° SSE
YAOGAN 6 2.5 17:30:04 10° SSE 17:33:38 69° E 17:37:12 10° N
Cosmos 405 Rocket 2.7 17:31:09 10° N 17:34:51 61° E 17:38:40 10° SSE
Cosmos 1633 3.5 17:41:24 10° NNE 17:44:26 26° E 17:47:31 10° SSE
USA 234 3.4 17:38:05 10° SE 17:44:42 72° NE 17:51:15 10° NW
SL-16 R/B 3.2 17:40:14 10° NNE 17:44:49 26° ENE 17:49:25 10° SE
Cosmos 1354 Rocket 4.1 17:40:01 10° SSW 17:45:21 85° WNW 17:50:36 10° NNE
SJ-7 4.5 17:42:25 10° SSE 17:46:37 67° E 17:50:48 10° N
Cosmos 1076 Rocket 3.7 17:42:45 10° NNE 17:46:54 50° E 17:51:08 10° SSE
CZ-2C R/B 4.4 17:45:02 10° SE 17:48:03 16° E 17:51:03 10° NE
Meteor 2-15 Rocket 4.5 17:43:08 10° S 17:49:12 58° E 17:55:12 10° NNE
Cosmos 1606 3.3 17:45:47 10° SSE 17:49:20 34° ESE 17:52:49 10° NE
CZ-4B R/B 1.1 17:46:43 10° NNE 17:49:46 76° ESE 17:52:55 10° S
IRIDIUM 104 4.3 17:45:00 10° S 17:50:19 84° E 17:55:34 10° N
Atlas Centaur 2 3.5 17:47:00 10° WNW 17:51:23 31° N 17:56:46 10° NE
Cosmos 2151 3.8 17:47:55 10° NNE 17:51:35 29° E 17:55:18 10° SSE
Meteor PRIRODA 4.1 17:52:17 10° S 17:56:04 65° WSW 17:59:45 10° NNW
Cosmos 1437 Rocket 2.8 17:56:10 10° S 17:59:55 53° ESE 18:03:39 10° NNE
ERS-2 3.4 17:58:29 10° ENE 18:01:12 20° ESE 18:03:58 10° SSE
Cosmos 2292 Rocket 4.1 17:58:21 10° NNE 18:02:25 47° E 18:07:53 10° SSE
DMSP B5D2-2 4.5 17:58:01 10° NE 18:02:56 41° ESE 18:07:53 10° S
DMSP B5D1-3 4.5 17:59:02 10° NNE 18:04:10 77° ESE 18:09:24 10° S
ATLAS CENTAUR Rocket 3.8 18:01:35 10° NW 18:04:28 17° N 18:07:04 10° NE
Cosmos 1242 Rocket 3.5 18:02:01 10° SSE 18:05:14 26° ESE 18:08:23 10° NE
deb Chang Zheng 4 3.5 18:02:01 10° SSE 18:06:26 84° ENE 18:10:49 10° NNW
SAR-Lupe-4 4.5 18:03:47 10° NE 18:06:52 27° ESE 18:09:59 10° SSE
ATLAS 3B R/B 3.5 17:59:33 10° NW 18:06:54 55° SW 18:14:09 10° SSE
Cosmos 2058 4.3 18:03:32 10° NNW 18:07:27 41° W 18:11:27 10° S
Envisat 3.8 18:03:20 10° S 18:08:20 54° WSW 18:13:18 10° NNW
Cosmos 2237 Rocket 2.8 18:07:21 10° NW 18:12:56 60° WSW 18:18:38 10° SSE
Cosmos 967 Rocket 4.4 18:08:07 10° SSW 18:14:32 68° ESE 18:20:50 10° NE
SJ 16-02 1.9 18:10:34 10° S 18:14:41 35° ESE 18:18:46 10° NE
SMAP 3.1 18:10:16 10° SSE 18:14:56 58° E 18:19:33 10° N
SAR-Lupe-1 4.5 18:14:17 10° NE 18:17:40 39° ESE 18:21:06 10° S
Cosmos 1943 Rocket 3.2 18:16:33 10° S 18:21:03 23° SE 18:21:53 23° ESE
NOAA 6 4.0 18:16:03 10° SSE 18:21:17 84° ENE 18:26:25 10° NNW
H-2A R/B 3.3 18:21:39 26° E 18:21:39 26° E 18:24:49 10° NNE
Cosmos 1689 Rocket 2.0 18:19:43 10° NNE 18:22:31 51° ESE 18:25:22 10° S
Cosmos 1553 Rocket 3.9 18:17:11 10° S 18:23:20 69° E 18:29:24 10° NNE
Cosmos 1867 4.3 18:20:36 10° SSW 18:25:22 31° SE 18:26:56 26° E
Cosmos 1763 Rocket 4.1 18:21:43 10° NNE 18:26:26 34° E 18:28:30 25° ESE
CZ-2D R/B 4.3 18:35:47 28° NE 18:35:47 28° NE 18:38:19 10° NNE
Hubble Space Telescope 3.0 18:34:07 10° NNW 18:36:15 14° NNE 18:37:25 12° NNE
Okean O Rocket 1.9 18:34:15 27° SE 18:36:23 46° E 18:40:41 10° N
PSLV R/B 4.3 18:33:39 10° S 18:37:24 56° WSW 18:41:03 10° NNW
Cosmos 1417 Rocket 4.4 18:32:07 10° S 18:38:35 77° E 18:44:53 10° N
Lacrosse 5 1.9 18:35:10 10° SW 18:40:16 61° SE 18:42:25 33° ENE
Cosmos 2278 Rocket 3.3 18:34:53 10° SW 18:40:19 45° WNW 18:45:42 10° N
Cosmos 2369 Rocket 3.9 18:39:57 10° S 18:41:48 16° SSE 18:41:48 16° SSE
Meteor 1-26 Rocket 4.4 18:38:46 10° S 18:44:46 56° ESE 18:50:33 10° NNE
MOS 1-B 4.3 18:39:53 10° SSE 18:45:47 88° WSW 18:51:38 10° NNW
Cosmos 1933 3.2 18:42:55 10° S 18:47:04 70° E 18:51:10 10° NNE
BREEZE-M DEB (TANK) 3.7 18:44:53 10° NNW 18:47:27 34° NE 18:47:27 34° NE
Meteor 2-21 Rocket 4.4 18:42:15 10° N 18:48:27 72° E 18:54:43 10° SSE
CZ-4B R/B 3.0 18:44:41 10° SSE 18:50:03 72° ENE 18:55:21 10° N
CZ-2C R/B 4.0 18:44:56 10° NNW 18:50:15 42° W 18:55:36 10° SSW
Cosmos 468 Rocket 3.9 18:50:07 10° N 18:55:23 67° ENE 18:57:19 39° SE
Okean 3 Rocket 3.5 18:53:44 10° N 18:57:59 65° ENE 18:57:59 65° ENE
Cosmos 990 Rocket 4.4 18:53:36 10° S 18:57:40 41° SE 18:57:40 41° SE
Meteor 2-3 Rocket 3.8 18:55:45 10° NNW 19:01:22 75° W 19:07:07 10° S
Cosmos 1655 Rocket 4.1 18:55:45 10° N 19:02:04 82° W 19:08:33 10° S
H-2A R/B 3.8 19:06:48 18° NNE 19:06:48 18° NNE 19:08:06 10° NNE
Cosmos 1766 Rocket 3.4 18:59:39 10° N 19:04:10 79° E 19:04:23 76° ESE
Cosmos 1461 4.1 19:02:50 10° SW 19:07:03 45° WNW 19:11:23 10° N
Cosmos 1939 Rocket 4.4 19:17:53 16° SSW 19:20:47 36° WSW 19:24:36 10° NW
ATLAS CENTAUR R/B 3.1 19:16:42 10° SSW 19:18:32 24° SSW 19:18:32 24° SSW
Lacrosse 5 rocket 3.4 19:22:12 10° NNW 19:24:00 22° N 19:24:00 22° N
Cosmos 883 Rocket 4.4 19:20:36 10° S 19:26:52 87° W 19:33:09 10° N
USA 234 4.3 19:24:16 24° SSE 19:27:21 37° SSW 19:33:17 10° W
CZ-2C R/B 3.8 19:25:08 20° S 19:28:11 46° WSW 19:32:46 10° NW
SL-16 R/B 3.3 19:23:18 10° NW 19:28:38 42° WSW 19:32:00 21° S
ERS-2 4.4 19:31:32 10° NNW 19:34:33 24° W 19:37:37 10° SW
Atlas Centaur 2 4.3 19:35:52 10° WNW 19:40:00 20° NNW 19:41:58 17° N
Cosmos 2297 4.3 19:40:00 10° SSW 19:45:38 55° WNW 19:46:44 48° NNW
SJ 16-02 4.0 19:49:50 10° SW 19:52:57 19° W 19:56:03 10° NW
Cosmos 1943 Rocket 3.3 19:59:34 10° SSW 20:03:29 39° WSW 20:03:29 39° WSW
Okean O Rocket 4.3 20:11:42 16° SW 20:12:19 16° WSW 20:15:05 10° WNW
Lacrosse 5 4.3 20:19:05 10° WSW 20:21:42 19° WNW 20:21:42 19° WNW
